Powrót do katalogu

KSM1-D

AktywnyNaukaVLEO
NORAD 46907·PAYLOAD·🇱🇺 Luxembourg

Wystrzelony Nov 7, 2020 z Satish Dhawan Space Centre

Loading…

Następne Przeloty (najbliższe 24 godziny)

TLE

ŚwieżeSource: Space-Track

Epoka: Sep 14, 2026, 09:12 UTC

1 46907U 20081C   26257.38381192  .00006249  00000-0  24218-3 0  9995
2 46907  36.8950 238.5239 0004247 263.2395  96.7871 15.25831015322723

Śledź KSM1-D w czasie rzeczywistym z AllMySat

Download on the App Store